SL-8 R/B, 3131

Orbit data source: Space-Track

SL-8 R/B, 3131 is space debris in LEO originally from a launch on Tue, 20 Feb 1968 UTC launched from the Plesetsk Missile And Space Complex (PKMTR). Debris objects in space refer to the collection of defunct objects orbiting the Earth. Examples of debris include non-operational satellites, rocket bodies, and fragments generated from explosions, collisions, or faulty payload assembly.

Loading next visibility...
Identifier
3131, 1968-011B
Orbit
LEO
Country
Flag of CISCIS
Related business
Manufacturer
Yuzhnoe
Mission
Spacecraft
Bus & Motor
S3, Unknown motor
Mass
1,434 kg wet, 1,434 kg dry
Launch date (UTC)
1968-02-20 (58 years ago)
Launch vehicle
Unknown
Launch site
Plesetsk Missile And Space Complex (PKMTR)
Object type
Payload
Rocket body
Debris
Shape & HBR
Cyl, 2.1 m
Radar Cross Section
10.179 m², Large (>1 m²)

Expand to show TLE details & history
Last TLE update: 23 hours ago

TLE from 23 hours ago
0 SL-8 R/B
1 03131U 68011B   25257.44952427  .00000053  00000-0  18431-3 0  9990
2 03131  74.0524 166.6576 0013691  65.3131 294.9381 13.18022259769021
Epoch: 2025-09-14T10:47Z
TLE epoch observation values (Epoch: 2025-09-14T10:47:18.896Z)
Latitude
-0.00011°
Longitude
11.16047°
Altitude
1,190.392 km
Speed
7.261 km/s
True Right ascension
11h 06m 37s
True Declination
0° 00' 00"
Sunlit
Object was in daylight at epoch
Visualization orbit readout
Latitude
Unknown
Longitude
Unknown
Altitude
Unknown
Speed
Unknown
Apparent Right ascension
Unknown
Apparent Declination
Unknown
Sunlit
N/A
Visualization observer readout
Local Sidereal Time
02:05:15
Azimuth
Unknown
Elevation
Unknown
Doppler factor
Unknown
Orbital elements
Apogee altitude
1,200.4 km
Perigee altitude
1,179.677 km
Semi-major axis
7,568.176 km
Eccentricity
0.00137
Inclination
74.0524°
RAAN
166.6576°
Arg. of periapsis
65.3131°
True anomaly
294.79574°
Mean anomaly
294.9381°
Eccentric anomaly
294.86693°
Mean motion
3.29652 °/min
Orbital period
109.21 mins
BSTAR
0.00018431
Loading maneuver chart data...
Computing Atmospheric mass density...
Loading historical data...
Loading historical data...
Loading historical data...
Loading historical data...
Loading historical data...
Loading historical data...
Loading historical data...
Other satellites on launch #11 in the year 1968 (1968-02-20 UTC)

Documentation

Showing up to 5 results
|